Terminal Aerodrome Forecast
Issued by NWS

Home | Current Version | Previous Version | Text Only | Print | Product List | Glossary Off
Versions: 1 2 3 4 5 6 7 8 9 10 11 12 13 14 15 16 17 18 19 20 21 22 23 24 25 26 27

000
FTUS43 KTOP 242100 AAC
TAFFOE
TAF AMD
KFOE 242135Z 2422/2518 32011KT 5SM -RA BR SCT011 OVC026
      TEMPO 2422/2423 3SM TSRA OVC013CB
     FM250000 19003KT P6SM FEW025 SCT150
     FM250700 00000KT 4SM BR FEW001
     FM251200 17005KT P6SM BKN100=

USA.gov is the U.S. government's official web portal to all federal, state and local government web resources and services.